Vorticity
12 12 13 13 13 13 12 12 12 11 11 10 9 8 8 8 9 10 10 11 12 13 13 14 13 13 13 13 14 13 14 14 14 13 13 13 12 11 13 14 13 17 17 12 13 17 17 13 6 3 6 8 11 13 12 9 6 6 8 9 4 -3 -4
7 6 5 5 4 5 4 4 4 4 4 4 3 4 4 5 6 7 8 8 8 8 8 9 10 11 12 12 12 12 12 13 13 14 13 13 14 13 12 13 13 14 15 14 13 12 14 15 12 6 3 4 8 10 8 6 7 7 5 0 -3 -2 5
9 9 9 8 7 6 5 5 5 5 6 6 6 6 6 6 6 6 6 6 6 6 6 8 9 10 10 10 10 10 11 11 10 11 12 12 12 14 13 13 13 13 14 14 13 12 12 13 14 14 11 9 9 10 9 7 5 4 3 4 7 11 14
4 6 7 9 9 10 9 9 9 9 10 10 9 9 8 8 8 7 7 6 6 7 8 9 9 8 8 9 9 9 8 8 8 8 9 10 10 11 11 11 12 13 14 13 11 10 10 10 10 10 10 10 10 11 12 13 12 11 12 15 17 17 16
5 4 4 4 5 6 6 6 6 5 5 5 5 5 5 6 6 7 8 7 8 9 9 8 5 4 8 9 8 7 6 6 7 8 8 9 10 10 9 8 8 9 11 13 12 11 10 11 11 10 10 11 12 12 13 13 14 14 15 16 16 16 15
15 14 14 13 11 10 9 8 7 5 4 3 3 3 3 4 5 6 6 6 6 7 7 7 6 6 7 7 5 6 8 8 9 10 11 11 11 12 11 10 8 7 6 8 9 9 10 12 13 12 11 11 12 11 10 9 9 9 10 11 11 10 9
11 12 13 14 15 16 17 17 17 16 15 14 13 11 10 9 7 7 7 8 8 8 8 8 9 9 8 7 6 7 7 8 8 9 10 11 12 12 13 13 12 11 9 8 8 8 8 9 10 10 9 9 8 6 5 6 8 8 9 9 7 4 3
8 8 8 8 8 9 11 12 14 15 16 17 18 18 18 17 15 13 11 10 10 10 9 9 8 9 8 8 8 9 8 7 7 7 7 7 8 9 11 13 13 13 12 11 10 9 9 8 7 7 6 6 6 4 4 6 8 8 8 7 6 4 4
6 7 7 7 7 7 7 7 7 7 8 9 10 12 13 14 15 16 16 15 15 14 12 11 10 9 9 9 9 9 9 7 6 6 5 5 5 6 8 10 10 10 10 10 11 11 10 9 8 7 6 6 6 6 7 6 5 5 6 7 8 8 8
4 4 5 5 6 6 6 6 6 6 6 6 7 7 8 8 8 10 11 12 13 14 14 14 14 12 11 11 10 9 8 8 8 7 6 6 5 5 5 7 9 10 9 9 10 10 12 13 12 12 11 10 10 11 12 11 8 6 6 8 9 9 10
4 4 3 4 4 4 5 5 5 5 5 6 6 6 6 7 7 7 7 7 7 8 10 12 13 13 13 12 11 10 8 8 8 8 8 7 7 6 5 5 5 7 8 9 9 9 9 11 11 12 12 13 13 14 16 17 16 14 12 12 12 12 11
6 5 4 4 4 3 3 4 4 4 5 5 5 5 5 6 6 6 7 7 7 7 6 7 9 10 11 12 11 10 9 8 7 7 8 8 8 8 7 6 5 4 5 7 8 8 8 8 8 8 8 8 8 8 8 10 12 13 12 11 11 11 11
5 5 5 4 4 4 4 4 4 5 5 5 4 5 5 4 4 5 5 6 7 8 7 7 7 7 8 9 10 10 10 10 9 8 8 8 8 8 8 8 8 6 4 4 5 6 6 7 8 8 8 8 7 7 7 7 8 8 8 7 7 7 7
5 5 5 5 5 5 4 5 5 5 5 5 5 5 5 5 4 3 4 4 5 6 7 7 7 6 7 7 8 8 8 9 9 9 9 8 8 8 8 8 8 8 7 5 4 4 4 5 7 7 7 7 7 7 7 7 8 8 8 8 8 8 7
6 6 6 6 6 6 5 5 5 5 5 5 5 4 4 4 4 4 4 4 4 5 5 6 7 7 7 7 7 7 8 8 8 8 8 8 7 7 7 7 8 9 9 9 8 7 7 7 7 7 6 6 7 7 6 5 5 5 5 5 5 5 5
5 5 5 5 5 4 5 5 5 6 6 5 5 5 4 4 3 4 4 3 4 4 5 5 6 6 7 7 7 7 7 7 7 6 6 6 6 6 6 7 8 9 10 11 11 10 9 9 8 8 7 7 6 6 6 6 5 4 4 4 4 3 3
4 4 4 4 5 5 4 4 4 5 5 6 6 5 5 6 5 5 5 5 5 4 4 5 6 6 6 6 6 6 6 5 6 6 6 6 6 7 8 7 7 6 7 8 9 9 10 9 9 9 8 8 7 7 6 6 5 5 5 5 4 4 3
5 5 5 5 6 6 6 5 5 5 5 6 7 7 7 7 7 7 7 7 7 7 6 6 6 6 6 6 6 6 6 6 6 6 6 7 7 7 7 7 7 6 5 5 6 7 8 9 10 9 9 8 8 8 8 8 7 8 8 6 5 5 5
7 7 6 6 5 6 6 6 5 6 6 7 7 8 9 9 8 8 8 8 9 9 9 8 8 7 7 7 7 6 6 7 7 7 6 6 6 6 5 5 6 7 7 7 6 6 6 7 7 8 8 8 8 8 8 8 9 9 9 8 7 7 6
12 11 11 11 11 11 11 12 12 11 11 11 11 11 12 12 11 11 11 11 11 11 12 12 12 12 11 10 9 8 7 7 7 8 7 7 7 7 6 5 5 6 6 7 7 6 6 6 5 5 6 7 8 8 7 7 8 8 8 8 8 8 7
18 17 17 17 17 17 17 17 17 16 16 16 16 16 16 16 16 16 16 16 16 16 16 16 15 15 14 14 13 11 10 9 9 9 9 9 9 9 8 7 5 5 5 5 6 6 6 6 6 6 6 6 7 7 7 6 6 5 5 6 7 8 7
19 19 19 18 18 18 17 17 17 17 16 16 16 16 16 16 17 17 17 18 18 18 18 18 18 18 17 17 16 15 13 12 10 10 10 11 11 11 10 9 8 7 7 6 6 6 6 6 7 7 7 7 6 6 6 6 6 6 5 6 6 7 7
12 11 11 11 11 10 10 11 11 10 10 10 9 10 11 11 11 11 11 12 13 13 14 14 15 16 17 18 18 18 18 17 15 14 14 13 13 12 11 11 10 10 9 9 8 7 6 7 8 8 8 8 8 7 7 7 7 7 6 6 6 7 8
7 7 7 7 8 8 8 8 8 8 8 8 7 7 7 7 7 6 6 7 6 6 6 6 7 8 9 11 13 15 17 18 19 18 17 16 15 15 15 15 14 14 13 12 11 10 10 9 9 10 10 11 11 11 11 10 10 10 9 9 8 8 8
15 15 15 15 15 16 16 16 17 17 17 17 17 17 16 16 16 16 16 15 13 12 11 10 9 9 8 8 8 8 8 9 11 12 13 14 15 16 17 18 18 18 17 16 16 15 14 13 12 12 12 11 12 13 13 14 14 13 13 12 12 11 10
21 21 20 20 20 19 19 19 19 19 18 18 19 19 19 19 19 20 20 20 20 20 20 20 19 18 18 17 16 14 13 11 10 9 8 9 9 10 12 13 14 16 16 17 18 17 17 17 16 16 15 14 13 13 13 15 16 15 15 15 14 14 13
19 20 20 20 20 21 21 21 21 21 20 20 19 19 19 18 17 16 16 17 17 17 17 17 17 17 18 18 18 19 19 19 18 17 15 13 12 10 9 9 9 10 11 12 14 15 16 17 17 17 18 17 17 16 16 16 16 16 16 16 16 15 14
16 16 16 17 17 17 18 19 19 20 20 21 22 22 22 22 22 22 22 21 21 21 20 19 18 17 17 16 16 16 16 16 17 17 18 19 19 18 17 15 13 12 11 10 10 11 12 13 14 15 16 17 18 18 18 18 17 17 17 17 17 17 17
16 16 16 17 17 17 16 16 16 17 17 18 19 19 19 20 20 21 22 23 23 23 23 24 25 24 24 24 23 21 20 19 18 18 17 18 18 18 20 20 20 19 17 15 13 12 11 11 12 13 14 14 15 15 15 15 15 16 16 17 16 17 18
20 19 18 18 17 17 18 17 17 17 17 18 18 18 18 18 18 18 19 20 20 21 21 22 23 24 24 24 24 25 26 26 26 26 24 23 21 19 18 18 19 20 20 19 19 17 15 14 13 12 11 11 11 11 11 12 12 12 13 13 13 14 14
22 22 22 21 20 19 18 18 17 17 16 17 18 18 19 19 19 18 18 18 18 20 21 21 21 21 22 23 24 25 25 26 26 27 28 27 26 25 23 21 19 19 19 20 20 20 20 18 16 14 12 11 10 10 9 9 9 10 10 10 10 10 10
20 20 20 21 21 20 19 19 18 17 16 16 16 17 17 18 18 18 18 17 17 18 18 19 19 20 20 21 22 22 22 22 23 24 25 26 26 27 27 25 23 22 21 21 21 21 21 21 21 20 19 17 16 15 14 13 12 11 10 10 10 10 10
19 19 18 18 19 19 19 19 18 18 18 17 16 16 16 16 15 16 16 17 17 17 16 16 17 18 18 18 18 19 20 20 20 21 21 22 23 23 24 24 24 24 23 23 23 22 23 23 24 25 25 25 24 23 23 22 21 19 18 17 17 17 16
21 20 19 18 17 16 17 17 17 18 18 17 16 16 15 15 15 16 16 16 16 16 15 15 15 15 15 15 15 16 16 17 17 17 18 18 19 19 20 21 22 22 22 22 22 22 22 23 23 23 24 24 24 25 24 24 25 25 25 24 24 24 24
25 24 23 21 20 18 16 15 15 15 16 16 16 16 15 15 15 15 15 15 16 16 16 15 15 14 13 13 14 13 13 14 14 14 15 15 16 17 17 18 18 18 19 19 19 19 19 18 18 18 19 19 20 20 20 20 20 21 21 21 21 21 22
29 29 28 26 25 23 21 19 18 15 14 14 14 15 15 15 15 15 14 15 15 16 16 16 16 15 14 13 11 11 11 12 12 12 13 13 13 14 15 15 16 16 16 16 16 16 16 16 15 15 15 16 16 16 16 16 15 15 16 16 16 16 16
Height
5507 5508 5508 5508 5509 5510 5510 5510 5511 5511 5512 5513 5513 5514 5515 5515 5516 5517 5517 5518 5519 5519 5520 5520 5521 5522 5522 5522 5524 5525 5525 5526 5526 5526 5527 5528 5529 5530 5531 5532 5532 5536 5543 5543 5541 5541 5542 5543 5545 5545 5547 5547 5548 5549 5550 5551 5553 5553 5554 5556 5557 5559 5560
5499 5499 5499 5500 5500 5500 5501 5501 5501 5502 5502 5503 5504 5505 5505 5506 5506 5507 5507 5508 5509 5509 5510 5511 5512 5512 5513 5513 5514 5515 5516 5517 5517 5517 5518 5519 5520 5521 5522 5521 5522 5525 5530 5533 5533 5531 5531 5533 5534 5536 5538 5538 5539 5541 5541 5543 5545 5545 5546 5547 5548 5550 5551
5491 5491 5491 5491 5491 5491 5492 5492 5492 5493 5493 5494 5494 5495 5495 5496 5496 5497 5497 5498 5499 5499 5500 5501 5502 5502 5503 5503 5504 5506 5506 5507 5507 5507 5508 5510 5510 5512 5512 5512 5512 5514 5519 5523 5524 5522 5522 5523 5525 5527 5529 5530 5530 5531 5532 5534 5536 5536 5537 5539 5540 5541 5542
5482 5482 5482 5482 5482 5483 5483 5483 5483 5484 5484 5484 5485 5485 5485 5485 5486 5487 5488 5488 5489 5490 5490 5491 5492 5492 5493 5493 5494 5496 5496 5496 5497 5498 5498 5500 5501 5501 5503 5503 5503 5505 5508 5511 5514 5514 5513 5513 5515 5518 5520 5521 5521 5522 5523 5525 5526 5526 5528 5529 5531 5532 5533
5473 5473 5473 5473 5473 5473 5473 5474 5474 5474 5474 5475 5475 5475 5475 5476 5476 5477 5477 5478 5479 5480 5480 5481 5482 5482 5483 5484 5484 5485 5486 5487 5487 5488 5488 5490 5491 5491 5492 5492 5493 5495 5497 5500 5504 5505 5504 5504 5505 5508 5510 5512 5512 5512 5513 5515 5516 5516 5518 5520 5521 5523 5524
5463 5463 5463 5463 5463 5463 5463 5464 5464 5464 5464 5465 5465 5466 5466 5466 5467 5467 5468 5468 5469 5470 5470 5471 5471 5472 5472 5473 5474 5475 5476 5476 5477 5478 5478 5479 5480 5481 5481 5482 5483 5485 5486 5489 5493 5495 5495 5495 5495 5497 5500 5502 5503 5503 5503 5504 5506 5507 5508 5511 5512 5514 5515
5454 5454 5453 5453 5453 5453 5453 5453 5454 5454 5454 5454 5455 5455 5455 5456 5457 5457 5458 5458 5459 5459 5460 5460 5460 5461 5462 5462 5463 5464 5465 5466 5466 5467 5468 5469 5470 5470 5471 5472 5473 5474 5475 5478 5481 5484 5486 5486 5486 5486 5489 5492 5492 5492 5494 5495 5496 5498 5499 5501 5502 5504 5505
5445 5444 5444 5444 5443 5443 5443 5443 5443 5443 5443 5444 5444 5445 5445 5445 5446 5447 5447 5448 5448 5449 5449 5449 5450 5450 5451 5452 5452 5453 5454 5455 5456 5456 5457 5458 5459 5459 5460 5462 5463 5464 5465 5467 5470 5473 5475 5476 5477 5477 5479 5480 5480 5482 5486 5487 5486 5487 5489 5490 5490 5492 5494
5435 5435 5434 5434 5433 5433 5433 5433 5433 5433 5433 5433 5434 5434 5434 5435 5436 5437 5437 5437 5437 5437 5438 5439 5439 5440 5441 5441 5442 5443 5443 5444 5445 5446 5447 5447 5448 5449 5450 5451 5452 5454 5455 5456 5458 5462 5464 5465 5467 5469 5469 5469 5469 5471 5475 5476 5474 5476 5479 5478 5478 5481 5483
5425 5425 5425 5424 5423 5423 5423 5422 5422 5422 5422 5422 5423 5423 5424 5424 5425 5426 5426 5426 5426 5426 5427 5428 5429 5429 5430 5430 5431 5432 5432 5433 5434 5435 5436 5437 5437 5438 5439 5441 5442 5443 5444 5446 5447 5451 5452 5453 5457 5459 5458 5458 5459 5459 5461 5463 5464 5467 5468 5466 5467 5472 5474
5414 5414 5414 5414 5413 5412 5412 5411 5411 5411 5411 5411 5411 5412 5413 5414 5414 5415 5414 5415 5415 5416 5417 5417 5418 5419 5419 5419 5420 5420 5421 5422 5423 5424 5425 5426 5426 5427 5428 5430 5432 5433 5434 5435 5437 5439 5441 5442 5446 5447 5446 5447 5448 5447 5448 5451 5453 5456 5457 5455 5456 5462 5464
5403 5403 5403 5403 5402 5401 5401 5400 5399 5399 5399 5399 5399 5400 5401 5402 5403 5403 5403 5403 5403 5404 5405 5406 5406 5407 5408 5409 5409 5409 5410 5411 5411 5412 5413 5414 5415 5416 5417 5418 5420 5422 5423 5423 5425 5428 5430 5432 5434 5435 5435 5436 5436 5436 5438 5440 5442 5444 5446 5445 5446 5451 5454
5391 5391 5391 5391 5391 5390 5389 5388 5387 5387 5387 5386 5387 5387 5388 5390 5392 5392 5392 5391 5391 5392 5393 5393 5394 5395 5396 5397 5397 5398 5398 5399 5400 5400 5401 5402 5404 5405 5405 5406 5408 5410 5411 5412 5413 5416 5419 5420 5420 5422 5424 5423 5424 5426 5426 5428 5430 5432 5433 5434 5436 5440 5442
5379 5379 5379 5379 5378 5378 5377 5376 5374 5374 5374 5373 5374 5374 5375 5377 5379 5380 5380 5379 5379 5379 5380 5381 5382 5383 5384 5384 5385 5385 5386 5386 5387 5387 5388 5390 5391 5393 5394 5394 5396 5397 5398 5400 5401 5404 5407 5408 5407 5409 5412 5411 5411 5414 5415 5416 5418 5419 5420 5422 5425 5428 5430
5367 5366 5366 5366 5365 5365 5364 5363 5361 5361 5360 5360 5360 5360 5361 5364 5365 5366 5367 5367 5366 5366 5367 5368 5369 5371 5372 5372 5372 5373 5373 5373 5373 5374 5375 5377 5378 5380 5382 5383 5384 5385 5385 5387 5389 5391 5395 5396 5395 5397 5399 5399 5399 5400 5402 5404 5405 5406 5408 5410 5412 5416 5418
5353 5353 5353 5352 5352 5351 5351 5350 5348 5346 5346 5346 5345 5346 5347 5350 5351 5352 5352 5353 5353 5353 5354 5355 5356 5357 5358 5359 5359 5360 5359 5358 5359 5360 5362 5363 5365 5367 5370 5372 5372 5371 5372 5374 5375 5378 5381 5383 5384 5385 5386 5388 5387 5388 5390 5390 5391 5394 5397 5397 5399 5404 5407
5339 5338 5338 5338 5337 5336 5336 5336 5334 5332 5332 5331 5330 5331 5332 5334 5336 5337 5337 5338 5339 5339 5340 5341 5342 5343 5344 5345 5346 5346 5345 5345 5345 5346 5348 5350 5353 5355 5357 5358 5358 5357 5359 5360 5362 5365 5367 5369 5371 5372 5374 5375 5375 5376 5377 5376 5378 5384 5384 5382 5385 5392 5396
5324 5323 5322 5322 5321 5320 5321 5321 5319 5318 5317 5316 5315 5315 5317 5319 5320 5321 5322 5323 5323 5324 5326 5326 5327 5328 5329 5331 5332 5331 5331 5331 5331 5332 5335 5337 5340 5342 5343 5344 5343 5343 5345 5347 5349 5351 5354 5355 5358 5359 5361 5363 5363 5364 5364 5363 5366 5372 5370 5366 5371 5379 5382
5308 5308 5307 5306 5305 5304 5304 5304 5304 5302 5301 5300 5299 5299 5300 5302 5304 5305 5306 5307 5308 5309 5310 5311 5311 5312 5314 5315 5316 5316 5317 5316 5316 5318 5321 5323 5325 5327 5329 5329 5328 5329 5332 5334 5335 5338 5339 5341 5344 5345 5347 5350 5350 5351 5351 5351 5354 5357 5354 5353 5358 5363 5365
5292 5292 5291 5290 5289 5288 5287 5287 5287 5286 5285 5284 5283 5282 5283 5285 5287 5289 5289 5290 5292 5293 5294 5295 5296 5297 5297 5298 5299 5300 5301 5302 5302 5303 5306 5307 5309 5312 5314 5314 5313 5316 5319 5320 5322 5324 5324 5326 5330 5332 5334 5336 5337 5338 5338 5338 5339 5342 5340 5339 5343 5347 5348
5275 5275 5275 5274 5272 5272 5271 5269 5270 5270 5269 5267 5266 5265 5265 5267 5270 5271 5272 5274 5275 5277 5279 5280 5280 5280 5280 5280 5282 5284 5285 5286 5287 5288 5290 5292 5293 5296 5297 5297 5299 5302 5304 5305 5307 5309 5309 5312 5315 5318 5320 5322 5323 5323 5323 5324 5325 5327 5327 5326 5327 5331 5334
5259 5258 5259 5258 5257 5256 5254 5253 5253 5253 5253 5252 5250 5249 5249 5250 5252 5253 5254 5257 5259 5261 5262 5263 5264 5264 5264 5264 5265 5268 5269 5270 5271 5273 5276 5276 5276 5277 5279 5281 5284 5287 5289 5290 5292 5294 5295 5298 5301 5303 5305 5306 5307 5308 5308 5308 5310 5312 5313 5313 5313 5316 5318
5243 5242 5243 5243 5241 5240 5238 5237 5236 5236 5237 5236 5235 5233 5232 5234 5235 5236 5237 5240 5243 5244 5245 5246 5247 5248 5248 5248 5250 5252 5253 5254 5256 5260 5261 5258 5257 5259 5262 5264 5267 5271 5273 5274 5276 5278 5281 5284 5287 5288 5290 5291 5291 5292 5292 5293 5294 5296 5298 5299 5300 5301 5303
5226 5225 5226 5226 5225 5224 5222 5221 5220 5220 5220 5220 5219 5218 5217 5217 5219 5220 5222 5223 5225 5226 5228 5229 5230 5231 5232 5234 5235 5237 5238 5239 5242 5244 5243 5240 5241 5243 5245 5248 5251 5254 5255 5257 5259 5262 5265 5269 5272 5273 5275 5276 5276 5276 5277 5277 5279 5281 5283 5284 5285 5287 5288
5208 5207 5208 5208 5207 5206 5205 5204 5203 5203 5203 5202 5201 5202 5201 5201 5202 5204 5204 5205 5206 5208 5210 5212 5214 5215 5217 5219 5219 5220 5222 5223 5226 5227 5226 5226 5227 5228 5230 5232 5234 5236 5238 5240 5243 5246 5249 5252 5255 5256 5258 5260 5261 5261 5262 5263 5264 5265 5267 5268 5269 5272 5273
5190 5189 5189 5190 5189 5188 5188 5187 5186 5186 5185 5184 5184 5184 5185 5186 5187 5186 5185 5186 5189 5191 5193 5195 5197 5199 5201 5202 5202 5203 5205 5207 5209 5210 5211 5211 5212 5213 5215 5217 5218 5220 5222 5224 5227 5229 5232 5236 5239 5240 5242 5244 5245 5246 5248 5249 5249 5249 5251 5253 5254 5255 5257
5172 5172 5172 5172 5172 5172 5171 5171 5170 5169 5168 5167 5167 5168 5169 5170 5170 5169 5168 5170 5173 5175 5177 5179 5181 5182 5183 5184 5185 5186 5187 5189 5192 5194 5195 5196 5196 5197 5199 5202 5203 5205 5206 5208 5211 5213 5216 5220 5222 5224 5226 5228 5229 5231 5234 5234 5233 5234 5237 5238 5238 5238 5241
5156 5156 5155 5155 5156 5156 5156 5156 5154 5153 5151 5151 5151 5152 5154 5154 5153 5152 5153 5154 5156 5158 5160 5163 5164 5166 5167 5168 5169 5169 5170 5172 5175 5178 5179 5180 5180 5181 5183 5185 5187 5189 5191 5193 5195 5197 5201 5204 5206 5208 5210 5213 5214 5217 5219 5219 5217 5219 5222 5224 5222 5223 5227
5141 5140 5139 5138 5139 5139 5140 5141 5139 5137 5136 5136 5136 5137 5138 5139 5138 5137 5138 5139 5140 5142 5144 5147 5148 5150 5151 5151 5151 5152 5154 5157 5159 5162 5164 5164 5165 5166 5168 5169 5171 5173 5174 5176 5179 5182 5186 5189 5190 5193 5195 5197 5199 5201 5203 5203 5203 5204 5207 5209 5208 5210 5214
5124 5124 5123 5123 5124 5123 5123 5125 5125 5123 5122 5122 5122 5122 5124 5125 5124 5123 5124 5125 5125 5127 5130 5132 5133 5134 5136 5136 5136 5137 5140 5142 5143 5146 5148 5148 5149 5151 5153 5154 5156 5157 5158 5161 5164 5168 5171 5173 5175 5177 5180 5181 5183 5186 5188 5188 5189 5190 5192 5194 5194 5196 5200
5108 5108 5106 5107 5108 5108 5108 5109 5109 5109 5109 5109 5109 5109 5110 5110 5110 5110 5111 5111 5112 5114 5117 5118 5119 5120 5121 5121 5122 5124 5126 5127 5128 5131 5133 5133 5134 5136 5138 5140 5141 5142 5144 5147 5150 5153 5155 5156 5159 5162 5164 5166 5168 5171 5174 5174 5175 5176 5178 5179 5180 5182 5185
5094 5093 5092 5091 5092 5093 5094 5094 5095 5095 5096 5096 5096 5096 5096 5096 5096 5097 5098 5099 5100 5103 5105 5105 5106 5108 5109 5109 5109 5111 5112 5113 5115 5117 5118 5120 5121 5123 5124 5126 5127 5128 5130 5134 5136 5138 5139 5141 5143 5146 5149 5151 5154 5157 5159 5160 5160 5162 5164 5165 5166 5168 5171
5080 5079 5078 5077 5077 5077 5078 5080 5080 5082 5083 5084 5084 5083 5083 5084 5084 5085 5086 5086 5088 5090 5092 5092 5094 5096 5096 5097 5097 5098 5099 5101 5103 5105 5106 5107 5109 5110 5112 5113 5114 5116 5118 5121 5122 5124 5126 5129 5130 5132 5135 5137 5139 5143 5144 5145 5145 5147 5149 5151 5152 5154 5156
5067 5065 5064 5064 5064 5064 5064 5065 5066 5068 5070 5071 5071 5071 5071 5071 5073 5074 5074 5074 5075 5077 5079 5080 5082 5083 5084 5085 5086 5087 5088 5090 5091 5093 5095 5096 5097 5099 5100 5101 5103 5104 5106 5108 5110 5112 5115 5116 5117 5119 5121 5123 5126 5129 5130 5131 5132 5133 5136 5138 5139 5141 5143
5056 5053 5051 5050 5050 5050 5051 5052 5053 5055 5056 5057 5058 5059 5059 5061 5062 5063 5063 5062 5063 5065 5067 5069 5070 5071 5073 5074 5075 5076 5077 5079 5081 5082 5084 5085 5086 5088 5089 5091 5092 5093 5095 5097 5099 5101 5103 5104 5106 5107 5109 5111 5114 5116 5118 5119 5120 5121 5123 5126 5127 5128 5131
5046 5043 5040 5039 5037 5037 5038 5039 5041 5042 5042 5043 5045 5046 5048 5050 5051 5052 5052 5052 5053 5054 5055 5057 5059 5060 5062 5062 5063 5064 5066 5068 5070 5072 5073 5075 5076 5077 5079 5080 5082 5083 5084 5086 5088 5090 5092 5093 5095 5097 5098 5100 5103 5105 5106 5108 5108 5109 5112 5114 5114 5116 5119